Location: Newark
(7.0858°N, 171.3717°E)
Time: 10:14:32
(UTC+00:00)

A-11 Canister half - Pass Details

Date: 04 December 2020
Orbit: 1517 x 1683 km, 47.2° (Epoch: 19 January)

Event Time Altitude Azimuth Distance (km) Brightness Sun altitude
Rises 07:12:50 0° 319° (NW) 4,926 11.9 -13.8°
Reaches altitude 10° 07:16:00 10° 319° (NW) 3,935 11.4 -14.5°
Maximum altitude 07:26:10 86° 230° (SW) 1,664 9.2 -16.8°
Drops below altitude 10° 07:36:05 10° 142° (SE) 3,847 10.9 -19.1°
Sets 07:39:09 0° 141° (SE) 4,812 11.4 -19.8°
